sat.trackr.live / text

‹ back to catalog

STARLINK-5696

NORAD 55484 · 2023-015AM

PAYLOAD ACTIVE UNKNOWN

§ Identity

Operator
Country
US
Launch date
2023-02-02
Launch site
AFETR
Launch vehicle
Mass (kg)
RCS (m²)

Purposes: comms

External: N2YO · Heavens-Above · Gunter

§ Orbital elements

Epoch: 2026-05-24T17:51:00.285120Z

Period
94.27 min
Inclination
43.0051°
Eccentricity
0.0001599
Mean motion
15.27575466 rev/d
Perigee alt
482.0 km
Apogee alt
484.2 km
Semi-major
6,861.2 km
B*
1.4273e-5
RAAN
270.4812°
Arg perigee
278.5824°
Mean anomaly
81.4847°
Rev number
18,222

§ Raw data

STARLINK-56961 55484U 23015AM  26144.74375330  .00000130  00000+0  14273-4 0  99902 55484  43.0051 270.4812 0001599 278.5824  81.4847 15.27575466182220

JSON: /api/v1/satellites/55484 · /tle

For live sub-satellite position, see the globe view (requires WebGL).

§ Visibility from observer

Set your observer location to see the next 7 days of passes ≥ 10°. The values pass through the URL so the page stays shareable.

No JS? Fill the form by hand. The geolocation button needs JavaScript.